Location: Bodham
(52.9000°N, 1.1667°E)
Time: 14:11:08
(UTC+00:00)

Cosmos 2112 Rocket - Pass Details

Date: 18 October 2025
Orbit: 753 x 782 km, 74.0° (Epoch: 13 November)

Event Time Altitude Azimuth Distance (km) Brightness Sun altitude
Rises 21:04:32 0° 233° (SW) 3,259 7.4 -36.9°
Enters shadow 21:04:55 - 234° (SW) 3,120 7.3 -36.9°
Exits shadow 21:18:33 - 21° (NNE) 2,946 7.2 -38.4°
Sets 21:19:24 0° 24° (NNE) 3,254 7.5 -38.5°
